DW5164 Weather Reports


Display with metric or nautical units.
time (UTC)temp
F
wind
direction
speed
MPH
gust
MPH
rain 1hr
in
rain 24hr
in
rain mn
in
humidity
%
barometer
mb
20260904153932 92 109 3.0 5.0 0.00 0.00 0.00 51 1015.0
20260904153433 92 96 3.0 5.0 0.00 0.00 0.00 49 1015.0
20260904152433 92 90 2.0 3.0 0.00 0.00 0.00 46 1015.0
20260904151932 92 121 2.0 5.0 0.00 0.00 0.00 50 1015.1
20260904150934 92 91 2.0 5.0 0.00 0.00 0.00 50 1015.1
20260904150432 92 94 3.0 6.0 0.00 0.00 0.00 49 1015.1
20260904145932 92 90 4.0 6.0 0.00 0.00 0.00 51 1015.1
20260904144931 93 112 2.0 6.0 0.00 0.00 0.00 50 1015.2
20260904144431 93 92 3.0 6.0 0.00 0.00 0.00 49 1015.2
20260904143432 93 76 5.0 7.0 0.00 0.00 0.00 49 1015.3
20260904142932 93 88 3.0 7.0 0.00 0.00 0.00 50 1015.4
20260904141933 92 88 2.0 5.0 0.00 0.00 0.00 47 1015.5
20260904140933 92 110 5.0 7.0 0.00 0.00 0.00 49 1015.5
20260904140432 92 111 3.0 8.0 0.00 0.00 0.00 51 1015.6
20260904134933 93 146 3.0 5.0 0.00 0.00 0.00 49 1015.8
20260904134434 93 96 2.0 5.0 0.00 0.00 0.00 49 1015.8
20260904133932 92 115 3.0 5.0 0.00 0.00 0.00 49 1015.9
20260904133432 92 98 3.0 6.0 0.00 0.00 0.00 52 1016.0
20260904132932 91 143 5.0 8.0 0.00 0.00 0.00 50 1016.0
20260904131932 91 71 5.0 9.0 0.00 0.00 0.00 52 1016.1
20260904131432 92 42 6.0 9.0 0.00 0.00 0.00 53 1016.2
20260904130932 92 71 5.0 9.0 0.00 0.00 0.00 52 1016.2
20260904130434 92 61 5.0 8.0 0.00 0.00 0.00 52 1016.2
20260904125932 92 83 3.0 7.0 0.00 0.00 0.00 52 1016.3
20260904125433 91 99 3.0 7.0 0.00 0.00 0.00 51 1016.4
20260904124932 91 172 2.0 5.0 0.00 0.00 0.00 52 1016.4
20260904124432 91 135 5.0 9.0 0.00 0.00 0.00 52 1016.5
20260904123932 91 89 4.0 8.0 0.00 0.00 0.00 54 1016.6
20260904123431 90 93 4.0 8.0 0.00 0.00 0.00 54 1016.6
20260904121932 90 113 6.0 10.0 0.00 0.00 0.00 54 1016.7
20260904121432 91 87 5.0 10.0 0.00 0.00 0.00 54 1016.7
20260904115443 90 213 2.0 3.0 0.00 0.00 0.00 55 1016.8
20260904114932 90 49 1.0 7.0 0.00 0.00 0.00 58 1016.9
20260904112933 89 187 3.0 8.0 0.00 0.00 0.00 57 1017.1
20260904112439 89 123 3.0 8.0 0.00 0.00 0.00 57 1017.1
20260904111931 89 68 3.0 8.0 0.00 0.00 0.00 57 1017.2
20260904111432 88 94 2.0 6.0 0.00 0.00 0.00 59 1017.3
20260904110934 87 91 3.0 7.0 0.00 0.00 0.00 58 1017.4
20260904110432 88 102 5.0 8.0 0.00 0.00 0.00 60 1017.4
20260904105931 88 125 5.0 7.0 0.00 0.00 0.00 59 1017.4
20260904105433 88 105 4.0 8.0 0.00 0.00 0.00 59 1017.5
20260904104931 88 54 3.0 6.0 0.00 0.00 0.00 62 1017.6
20260904104431 87 84 5.0 7.0 0.00 0.00 0.00 61 1017.7
20260904103431 87 85 2.0 6.0 0.00 0.00 0.00 59 1017.8
20260904102934 87 89 2.0 7.0 0.00 0.00 0.00 60 1017.8
20260904101931 86 93 3.0 6.0 0.00 0.00 0.00 59 1017.8
20260904100936 86 140 2.0 5.0 0.00 0.00 0.00 59 1017.9
20260904100431 86 64 2.0 7.0 0.00 0.00 0.00 59 1017.9
20260904095932 86 49 2.0 5.0 0.00 0.00 0.00 59 1017.9
20260904095431 85 103 3.0 5.0 0.00 0.00 0.00 60 1018.0
20260904094948 85 101 2.0 6.0 0.00 0.00 0.00 60 1018.0
20260904094431 85 60 3.0 5.0 0.00 0.00 0.00 65 1018.0
20260904093932 84 122 3.0 6.0 0.00 0.00 0.00 63 1018.1
20260904092931 84 78 4.0 6.0 0.00 0.00 0.00 64 1018.1
20260904092438 83 75 2.0 5.0 0.00 0.00 0.00 66 1018.1
20260904091431 83 162 2.0 3.0 0.00 0.00 0.00 67 1018.2
20260904090431 83 123 3.0 5.0 0.00 0.00 0.00 67 1018.3
20260904085931 82 152 2.0 7.0 0.00 0.00 0.00 68 1018.3
20260904085432 82 79 2.0 3.0 0.00 0.00 0.00 69 1018.3
20260904084931 82 143 2.0 5.0 0.00 0.00 0.00 68 1018.2
20260904084432 81 92 2.0 6.0 0.00 0.00 0.00 67 1018.3
20260904083931 81 114 3.0 7.0 0.00 0.00 0.00 68 1018.3
20260904083431 81 74 2.0 5.0 0.00 0.00 0.00 69 1018.3
20260904082933 81 111 3.0 7.0 0.00 0.00 0.00 70 1018.3
20260904082436 80 89 3.0 6.0 0.00 0.00 0.00 69 1018.3
20260904080431 79 90 3.0 6.0 0.00 0.00 0.00 74 1018.2
20260904075931 79 82 2.0 6.0 0.00 0.00 0.00 75 1018.2
20260904074947 78 64 2.0 5.0 0.00 0.00 0.00 75 1018.2
20260904074436 78 107 2.0 8.0 0.00 0.00 0.00 74 1018.2
20260904073931 78 94 5.0 7.0 0.00 0.00 0.00 75 1018.1
20260904073431 77 115 2.0 3.0 0.00 0.00 0.00 78 1018.0
20260904072930 77 78 2.0 5.0 0.00 0.00 0.00 78 1018.0
20260904072449 77 71 3.0 6.0 0.00 0.00 0.00 78 1018.0
20260904070931 75 128 1.0 3.0 0.00 0.00 0.00 80 1017.9
20260904065930 74 92 3.0 5.0 0.00 0.00 0.00 82 1017.9
20260904064930 73 115 3.0 5.0 0.00 0.00 0.00 82 1017.9
20260904064430 73 118 2.0 5.0 0.00 0.00 0.00 83 1018.0
20260904063931 73 63 3.0 5.0 0.00 0.00 0.00 83 1018.0
20260904063431 73 81 2.0 5.0 0.00 0.00 0.00 83 1018.0
20260904062931 73 75 3.0 5.0 0.00 0.00 0.00 83 1017.9
20260904062430 72 84 2.0 3.0 0.00 0.00 0.00 83 1017.9
20260904061930 72 62 2.0 3.0 0.00 0.00 0.00 83 1017.9
20260904061431 72 30 1.0 3.0 0.00 0.00 0.00 85 1018.0
20260904060931 71 11 1.0 3.0 0.00 0.00 0.00 86 1017.9
20260904060430 70 56 1.0 2.0 0.00 0.00 0.00 86 1017.9
20260904055931 70 57 2.0 3.0 0.00 0.00 0.00 87 1017.9
20260904055431 70 53 0.0 3.0 0.00 0.00 0.00 87 1017.8
20260904054930 70 53 1.0 2.0 0.00 0.00 0.00 88 1017.8
20260904054431 69 53 0.0 2.0 0.00 0.00 0.00 88 1017.7
20260904053931 69 53 1.0 2.0 0.00 0.00 0.00 89 1017.7
20260904053430 68 53 1.0 2.0 0.00 0.00 0.00 90 1017.7
20260904052930 68 53 1.0 2.0 0.00 0.00 0.00 91 1017.7
20260904052430 68 5 0.0 0.0 0.00 0.00 0.00 91 1017.7
20260904051930 68 5 0.0 2.0 0.00 0.00 0.00 91 1017.6
20260904051430 67 5 1.0 2.0 0.00 0.00 0.00 92 1017.6
20260904050932 67 5 1.0 3.0 0.00 0.00 0.00 92 1017.5
20260904050432 67 25 0.0 3.0 0.00 0.00 0.00 92 1017.5
20260904045431 67 28 0.0 2.0 0.00 0.00 0.00 92 1017.5
20260904044930 66 34 1.0 2.0 0.00 0.00 0.00 92 1017.4
20260904044430 67 297 0.0 1.0 0.00 0.00 0.00 92 1017.4
20260904043931 67 337 0.0 1.0 0.00 0.00 0.00 92 1017.5
20260904043430 67 33 1.0 2.0 0.00 0.00 0.00 92 1017.5
20260904042930 67 30 1.0 3.0 0.00 0.00 0.00 92 1017.4
20260904041930 67 30 0.0 0.0 0.00 0.00 0.00 92 1017.4
20260904041430 67 30 0.0 0.0 0.00 0.00 0.00 92 1017.4
20260904040931 67 30 0.0 1.0 0.00 0.00 0.00 92 1017.4
20260904035930 67 30 0.0 0.0 0.00 0.00 0.00 92 1017.3
20260904035430 67 30 0.0 0.0 0.00 0.00 0.00 92 1017.3
20260904034930 67 30 0.0 0.0 0.00 0.00 0.00 91 1017.3
20260904033430 68 30 0.0 0.0 0.00 0.00 0.00 91 1017.2
20260904032930 68 30 0.0 0.0 0.00 0.00 0.00 92 1017.1
20260904032430 67 30 0.0 0.0 0.00 0.00 0.00 91 1017.1
20260904031930 68 30 0.0 0.0 0.00 0.00 0.00 91 1017.2
20260904030930 68 30 0.0 0.0 0.00 0.00 0.00 91 1017.2
20260904025930 68 30 0.0 0.0 0.00 0.00 0.00 90 1017.2
20260904024930 68 30 0.0 0.0 0.00 0.00 0.00 90 1017.0
20260904024430 68 30 0.0 0.0 0.00 0.00 0.00 90 1017.0
20260904023930 69 30 0.0 0.0 0.00 0.00 0.00 90 1017.1
20260904023429 69 30 0.0 0.0 0.00 0.00 0.00 90 1017.0
20260904022930 69 30 0.0 0.0 0.00 0.00 0.00 90 1017.0
20260904022430 69 30 0.0 0.0 0.00 0.00 0.00 89 1017.0
20260904021931 69 30 0.0 0.0 0.00 0.00 0.00 90 1017.0
20260904021430 69 30 0.0 0.0 0.00 0.00 0.00 90 1017.1
20260904020931 68 30 0.0 0.0 0.00 0.00 0.00 89 1017.1
20260904020430 69 30 0.0 0.0 0.00 0.00 0.00 89 1016.9
20260904015930 69 30 0.0 0.0 0.00 0.00 0.00 88 1017.0
20260904014430 70 30 0.0 2.0 0.00 0.00 0.00 87 1016.9
20260904013929 70 30 0.0 0.0 0.00 0.00 0.00 87 1016.9
20260904013431 70 30 0.0 1.0 0.00 0.00 0.00 86 1016.9
20260904012931 70 30 0.0 1.0 0.00 0.00 0.00 86 1016.9
20260904011930 71 30 0.0 2.0 0.00 0.00 0.00 85 1016.9
20260904011429 71 30 0.0 2.0 0.00 0.00 0.00 85 1016.9
20260904010930 71 30 2.0 3.0 0.00 0.00 0.00 85 1016.8
20260904005930 71 30 1.0 2.0 0.00 0.00 0.00 85 1016.9
20260904005429 71 30 1.0 1.0 0.00 0.00 0.00 86 1016.9
20260904004931 71 30 1.0 2.0 0.00 0.00 0.00 86 1016.8
20260904004430 71 58 0.0 3.0 0.00 0.00 0.00 86 1016.9
20260904003930 71 108 0.0 0.0 0.00 0.00 0.00 86 1016.8
20260904003429 71 108 0.0 0.0 0.00 0.00 0.00 86 1016.8
20260904002930 71 108 0.0 0.0 0.00 0.00 0.00 86 1016.9
20260904002430 71 108 1.0 3.0 0.00 0.00 0.00 85 1016.9
20260904001432 72 108 1.0 2.0 0.00 0.00 0.00 85 1016.9
20260904000931 72 108 1.0 2.0 0.00 0.00 0.00 85 1017.0
20260904000430 71 108 0.0 0.0 0.00 0.00 0.00 86 1017.0
20260903235930 71 108 0.0 2.0 0.00 0.00 0.00 87 1017.0
20260903235429 71 108 1.0 3.0 0.00 0.00 0.00 88 1017.1
20260903234430 71 108 1.0 3.0 0.00 0.00 0.00 89 1017.1
20260903233929 70 108 2.0 3.0 0.00 0.00 0.00 89 1017.1
20260903233429 70 108 2.0 3.0 0.00 0.00 0.00 89 1017.2
20260903232930 70 107 3.0 3.0 0.00 0.00 0.00 90 1017.1
20260903232429 70 88 3.0 5.0 0.00 0.00 0.00 89 1017.2
20260903231929 70 88 2.0 3.0 0.00 0.00 0.00 88 1017.2
20260903231429 71 88 2.0 7.0 0.00 0.00 0.00 86 1017.2
20260903230929 72 90 2.0 6.0 0.00 0.00 0.00 83 1017.2
20260903230429 73 0 1.0 1.0 0.00 0.00 0.00 83 1017.2
20260903225929 73 0 1.0 3.0 0.00 0.00 0.00 82 1017.2
20260903225429 73 5 1.0 2.0 0.00 0.00 0.00 82 1017.1
20260903224930 73 349 2.0 3.0 0.00 0.00 0.00 82 1017.1
20260903224429 73 324 1.0 2.0 0.00 0.00 0.00 82 1017.1
20260903223929 72 312 2.0 3.0 0.00 0.00 0.00 83 1017.0
20260903223429 73 314 2.0 3.0 0.00 0.00 0.00 83 1017.0
20260903222929 73 349 0.0 2.0 0.00 0.00 0.00 82 1017.0
20260903222429 73 349 0.0 0.0 0.00 0.00 0.00 82 1016.9
20260903221429 73 349 0.0 0.0 0.00 0.00 0.00 82 1016.9
20260903220929 73 349 0.0 1.0 0.00 0.00 0.00 83 1016.9
20260903220429 73 349 0.0 1.0 0.00 0.00 0.00 83 1016.9
20260903215930 73 349 0.0 0.0 0.00 0.00 0.00 82 1016.8
20260903214930 74 349 0.0 0.0 0.00 0.00 0.00 81 1016.9
20260903214429 74 349 0.0 1.0 0.00 0.00 0.00 81 1016.9
20260903213928 74 349 0.0 0.0 0.00 0.00 0.00 80 1016.8
20260903213429 74 349 0.0 0.0 0.00 0.00 0.00 80 1016.8
20260903212429 74 349 0.0 1.0 0.00 0.00 0.00 79 1016.7
20260903211929 74 349 0.0 0.0 0.00 0.00 0.00 78 1016.7
20260903210929 74 349 0.0 1.0 0.00 0.00 0.00 79 1016.7
20260903205929 74 349 0.0 1.0 0.00 0.00 0.00 79 1016.7
20260903205429 74 349 0.0 1.0 0.00 0.00 0.00 79 1016.7
20260903204929 74 349 0.0 3.0 0.00 0.00 0.00 77 1016.7
20260903204429 75 349 0.0 3.0 0.00 0.00 0.00 78 1016.7
20260903203929 75 349 0.0 0.0 0.00 0.00 0.00 77 1016.7
20260903203428 75 349 0.0 0.0 0.00 0.00 0.00 78 1016.7
20260903202929 76 349 0.0 0.0 0.00 0.00 0.00 78 1016.7
20260903202429 76 349 0.0 0.0 0.00 0.00 0.00 77 1016.7
20260903201929 76 349 0.0 0.0 0.00 0.00 0.00 77 1016.6
20260903201428 77 349 0.0 0.0 0.00 0.00 0.00 76 1016.6
20260903200930 77 349 0.0 0.0 0.00 0.00 0.00 76 1016.5
20260903195929 77 349 0.0 0.0 0.00 0.00 0.00 75 1016.5
20260903194929 77 349 0.0 0.0 0.00 0.00 0.00 75 1016.5
20260903193928 78 349 0.0 0.0 0.00 0.00 0.00 75 1016.4
20260903192928 77 349 0.0 0.0 0.00 0.00 0.00 75 1016.4
20260903192429 78 349 0.0 0.0 0.00 0.00 0.00 75 1016.4
20260903191929 78 349 0.0 0.0 0.00 0.00 0.00 74 1016.4
20260903191429 79 349 0.0 0.0 0.00 0.00 0.00 74 1016.4
20260903190929 79 349 0.0 0.0 0.00 0.00 0.00 74 1016.3
20260903190429 79 349 0.0 0.0 0.00 0.00 0.00 73 1016.3
20260903185429 78 349 0.0 0.0 0.00 0.00 0.00 73 1016.2
20260903184928 79 349 0.0 0.0 0.00 0.00 0.00 74 1016.1
20260903184428 79 349 0.0 0.0 0.00 0.00 0.00 73 1016.1
20260903183930 79 349 0.0 0.0 0.00 0.00 0.00 73 1016.1
20260903183428 79 349 0.0 0.0 0.00 0.00 0.00 72 1016.0
20260903182928 79 349 0.0 1.0 0.00 0.00 0.00 72 1016.0
20260903182428 80 349 1.0 2.0 0.00 0.00 0.00 71 1015.9
20260903181928 80 349 1.0 2.0 0.00 0.00 0.00 71 1015.9
20260903181428 80 349 1.0 2.0 0.00 0.00 0.00 70 1015.9
20260903180929 81 349 0.0 0.0 0.00 0.00 0.00 69 1015.8
20260903180428 81 349 0.0 1.0 0.00 0.00 0.00 68 1015.8
20260903175928 81 349 0.0 1.0 0.00 0.00 0.00 67 1015.7
20260903175428 82 349 0.0 0.0 0.00 0.00 0.00 67 1015.7
20260903174929 82 349 0.0 1.0 0.00 0.00 0.00 66 1015.8
20260903174428 83 349 0.0 0.0 0.00 0.00 0.00 65 1015.7
20260903173929 84 349 0.0 1.0 0.00 0.00 0.00 64 1015.7
20260903173428 85 349 1.0 2.0 0.00 0.00 0.00 55 1015.7
20260903172929 86 339 2.0 3.0 0.00 0.00 0.00 55 1015.7
20260903172428 87 335 2.0 3.0 0.00 0.00 0.00 55 1015.7
20260903171928 87 326 1.0 3.0 0.00 0.00 0.00 55 1015.7
20260903171428 87 324 2.0 3.0 0.00 0.00 0.00 53 1015.6
20260903170428 88 299 3.0 6.0 0.00 0.00 0.00 52 1015.6
20260903165428 89 316 3.0 3.0 0.00 0.00 0.00 51 1015.6
20260903164928 89 300 3.0 5.0 0.00 0.00 0.00 50 1015.5
20260903164428 89 306 3.0 7.0 0.00 0.00 0.00 50 1015.5
20260903163928 89 297 1.0 7.0 0.00 0.00 0.00 50 1015.5
20260903163428 89 240 2.0 5.0 0.00 0.00 0.00 49 1015.4
20260903162929 90 219 2.0 3.0 0.00 0.00 0.00 50 1015.4
20260903162428 90 255 4.0 7.0 0.00 0.00 0.00 50 1015.4
20260903161929 90 252 3.0 6.0 0.00 0.00 0.00 51 1015.3
20260903160929 90 275 4.0 7.0 0.00 0.00 0.00 48 1015.3
20260903160428 90 272 2.0 6.0 0.00 0.00 0.00 49 1015.3
20260903155928 90 271 3.0 5.0 0.00 0.00 0.00 48 1015.3
20260903155429 91 249 5.0 8.0 0.00 0.00 0.00 48 1015.3
20260903154928 91 206 3.0 6.0 0.00 0.00 0.00 47 1015.3